CW7536 Weather Reports


Display with metric or nautical units.
time (UTC)temp
F
wind
direction
speed
MPH
gust
MPH
rain 1hr
in
rain 24hr
in
rain mn
in
humidity
%
barometer
mb
20260904174551 85 351 0.0 6.0 0.00 0.00 0.00 23 1011.5
20260904173045 84 51 1.0 8.0 0.00 0.00 0.00 23 1011.3
20260904171550 84 359 0.0 5.0 0.00 0.00 0.00 21 1011.5
20260904170037 85 110 2.0 7.0 0.00 0.00 0.00 19 1011.5
20260904164532 84 318 0.0 3.0 0.00 0.00 0.00 17 1011.8
20260904163029 83 295 0.0 3.0 0.00 0.00 0.00 15 1011.6
20260904161525 83 340 0.0 6.0 0.00 0.00 0.00 14 1011.7
20260904160025 84 20 2.0 8.0 0.00 0.00 0.00 10 1011.7
20260904154514 83 347 1.0 5.0 0.00 0.00 0.00 9 1011.8
20260904153010 83 95 1.0 5.0 0.00 0.00 0.00 2 1011.9
20260904151505 83 10 0.0 5.0 0.00 0.00 0.00 1 1012.1
20260904150106 82 31 0.0 2.0 0.00 0.00 0.00 1 1012.2
20260904144601 82 77 0.0 3.0 0.00 0.00 0.00 1 1012.1
20260904143052 81 343 1.0 6.0 0.00 0.00 0.00 1 1012.0
20260904141548 80 27 0.0 3.0 0.00 0.00 0.00 1 1012.0
20260904140059 79 30 1.0 6.0 0.00 0.00 0.00 1 1011.9
20260904134639 78 352 0.0 2.0 0.00 0.00 0.00 1 1011.9
20260904133035 76 20 0.0 2.0 0.00 0.00 0.00 1 1011.8
20260904131531 75 23 0.0 2.0 0.00 0.00 0.00 1 1011.8
20260904130042 75 68 0.0 1.0 0.00 0.00 0.00 1 1011.9
20260904124522 75 108 0.0 0.0 0.00 0.00 0.00 1 1012.0
20260904123017 73 196 0.0 0.0 0.00 0.00 0.00 1 1012.0
20260904121513 73 197 0.0 0.0 0.00 0.00 0.00 1 1011.7
20260904120013 72 196 0.0 0.0 0.00 0.00 0.00 1 1011.5
20260904114503 72 196 0.0 0.0 0.00 0.00 0.00 1 1011.3
20260904113100 72 196 0.0 1.0 0.00 0.00 0.00 1 1011.5
20260904111555 71 191 0.0 2.0 0.00 0.00 0.00 1 1011.4
20260904110053 71 276 0.0 0.0 0.00 0.00 0.00 1 1011.2
20260904104546 71 254 0.0 2.0 0.00 0.00 0.00 1 1011.0
20260904103046 71 275 0.0 3.0 0.00 0.00 0.00 1 1011.0
20260904101537 71 283 0.0 0.0 0.00 0.00 0.00 1 1011.0
20260904100033 71 283 0.0 1.0 0.00 0.00 0.00 1 1010.7
20260904094528 71 281 0.0 0.0 0.00 0.00 0.00 1 1010.5
20260904093025 72 281 0.0 1.0 0.00 0.00 0.00 1 1010.6
20260904091520 72 283 0.0 0.0 0.00 0.00 0.00 1 1010.6
20260904090016 72 283 0.0 0.0 0.00 0.00 0.00 1 1010.7
20260904084513 72 283 0.0 0.0 0.00 0.00 0.00 1 1010.6
20260904083012 72 283 0.0 0.0 0.00 0.00 0.00 1 1010.7
20260904081509 72 252 0.0 1.0 0.00 0.00 0.00 1 1010.6
20260904080004 72 285 0.0 1.0 0.00 0.00 0.00 1 1010.7
20260904074612 72 281 0.0 3.0 0.00 0.00 0.00 1 1010.5
20260904073059 72 255 0.0 0.0 0.00 0.00 0.00 1 1010.5
20260904071551 72 239 0.0 1.0 0.00 0.00 0.00 1 1010.2
20260904070047 72 282 0.0 2.0 0.00 0.00 0.00 1 1010.3
20260904064542 73 240 1.0 3.0 0.00 0.00 0.00 1 1010.1
20260904063042 73 29 0.0 1.0 0.00 0.00 0.00 1 1010.1
20260904061532 74 29 1.0 2.0 0.00 0.00 0.00 1 1010.5
20260904060029 75 335 1.0 11.0 0.00 0.00 0.00 1 1011.9
20260904054523 76 278 0.0 1.0 0.00 0.00 0.00 1 1011.4
20260904053025 76 278 0.0 1.0 0.00 0.00 0.00 1 1011.4
20260904051529 76 278 0.0 0.0 0.00 0.00 0.00 1 1011.5
20260904050010 76 278 0.0 0.0 0.00 0.00 0.00 1 1011.2
20260904044506 76 278 0.0 0.0 0.00 0.00 0.00 1 1011.1
20260904043002 76 278 0.0 0.0 0.00 0.00 0.00 1 1011.5
20260904041557 77 278 0.0 0.0 0.00 0.00 0.00 1 1011.6
20260904040053 77 278 0.0 1.0 0.00 0.00 0.00 1 1011.8
20260904034549 77 278 0.0 1.0 0.00 0.00 0.00 1 1012.0
20260904033045 77 258 0.0 0.0 0.00 0.00 0.00 1 1011.9
20260904031540 77 262 0.0 0.0 0.00 0.00 0.00 1 1011.7
20260904030035 78 261 0.0 1.0 0.00 0.00 0.00 1 1011.4
20260904024531 78 261 0.0 1.0 0.00 0.00 0.00 1 1011.9
20260904023026 78 283 0.0 1.0 0.00 0.00 0.00 1 1012.3
20260904021526 78 285 0.0 1.0 0.00 0.00 0.00 1 1012.3
20260904020018 78 285 0.0 0.0 0.00 0.00 0.00 1 1012.5
20260904014513 78 285 0.0 0.0 0.00 0.00 0.00 1 1012.6
20260904013010 78 285 0.0 2.0 0.00 0.00 0.00 1 1012.9
20260904011505 78 283 0.0 1.0 0.00 0.00 0.00 1 1012.7
20260904010115 78 259 0.0 0.0 0.00 0.00 0.00 1 1012.5
20260904004555 78 254 0.0 0.0 0.00 0.00 0.00 1 1012.4
20260904003052 78 254 0.0 1.0 0.00 0.00 0.00 1 1012.3
20260904001550 78 254 0.0 0.0 0.00 0.00 0.00 1 1012.0
20260904000053 79 254 0.0 0.0 0.00 0.00 0.00 1 1012.4
20260903234540 79 255 0.0 2.0 0.00 0.00 0.00 1 1012.2
20260903233036 81 261 0.0 0.0 0.00 0.00 0.00 1 1011.9
20260903231532 82 261 0.0 0.0 0.00 0.00 0.00 1 1011.8
20260903230027 83 249 0.0 1.0 0.00 0.00 0.00 4 1011.9
20260903224523 84 245 0.0 1.0 0.00 0.00 0.00 11 1011.9
20260903223027 85 229 0.0 1.0 0.00 0.00 0.00 12 1011.9
20260903221514 86 258 0.0 2.0 0.00 0.00 0.00 18 1012.1
20260903220010 88 271 0.0 3.0 0.00 0.00 0.00 20 1012.0
20260903214509 87 270 0.0 1.0 0.00 0.00 0.00 21 1011.8
20260903213000 88 266 2.0 5.0 0.00 0.00 0.00 22 1011.8
20260903211557 88 283 0.0 6.0 0.00 0.00 0.00 20 1011.9
20260903210107 88 18 0.0 3.0 0.00 0.00 0.00 20 1011.9
20260903204604 88 292 0.0 5.0 0.00 0.00 0.00 18 1012.1
20260903203044 87 285 0.0 6.0 0.00 0.00 0.00 19 1011.9
20260903201539 87 286 1.0 7.0 0.00 0.00 0.00 19 1012.0
20260903200038 88 262 1.0 6.0 0.00 0.00 0.00 19 1012.0
20260903194530 87 290 0.0 6.0 0.00 0.00 0.00 16 1012.1
20260903193026 87 238 2.0 6.0 0.00 0.00 0.00 16 1012.2
20260903191521 87 11 1.0 5.0 0.00 0.00 0.00 13 1012.3
20260903190017 86 286 2.0 5.0 0.00 0.00 0.00 11 1012.6
20260903184513 86 30 0.0 7.0 0.00 0.00 0.00 7 1012.8
20260903183008 85 288 2.0 7.0 0.00 0.00 0.00 6 1013.1
20260903181503 85 264 3.0 8.0 0.00 0.00 0.00 4 1013.1
20260903180101 85 262 1.0 5.0 0.00 0.00 0.00 2 1013.2